WXM80 ListenWXM80 Stop

You find our weather info also at:

UK Metoffice

WeatherCloud

Weather Underground

Northeastern Weather Network

AWEKAS

Citizen Weather Observer Program (CWOP)

HAMweather, WeatherForYou, PWS Weather


Weather Underground History page Text

Daily Summary for February 26, 2017 Units:  English    Metric   Both
« Previous Day
Next Day »
Daily Weekly Monthly Yearly Custom
  High: Low: Average:
Temperature: 43.4 °F 33.4 °F 39.3 °F
Dew Point: 40.4 °F 21.6 °F 26.1 °F
Humidity: 90 % 44 % 60 %
Wind Speed: 13.2 mph 0.0 mph 5.7 mph
Wind Gust: 23.0 mph - -
Wind:- - WNW
Pressure: 30.24 in 29.59 in -
Precipitation: 0.00 in    
Historical Graphs
 
 
Tabular Data for February 26, 2017
Time Temperature Dew Point Pressure Wind Wind Speed Wind Gust Humidity Rainfall Rate (Hourly)
00:03 43.4 °F 40.4 °F 29.59 in NW 4.0 mph 8.1 mph 89 % 0.00 in
00:08 43.2 °F 39.9 °F 29.61 in NW 5.2 mph 8.1 mph 88 % 0.00 in
00:13 43.1 °F 39.8 °F 29.63 in WNW 3.0 mph 7.0 mph 88 % 0.00 in
00:18 43.1 °F 40.1 °F 29.63 in WNW 3.0 mph 8.0 mph 89 % 0.00 in
00:23 43.0 °F 40.0 °F 29.63 in WNW 3.0 mph 10.0 mph 89 % 0.00 in
00:28 43.0 °F 40.0 °F 29.63 in NW 4.1 mph 10.0 mph 89 % 0.00 in
00:33 42.9 °F 39.9 °F 29.62 in NW 3.0 mph 15.0 mph 89 % 0.00 in
00:38 42.8 °F 39.8 °F 29.62 in NW 5.0 mph 12.0 mph 89 % 0.00 in
00:43 42.8 °F 39.8 °F 29.62 in WNW 1.0 mph 8.0 mph 89 % 0.00 in
00:48 42.7 °F 39.7 °F 29.62 in NW 7.1 mph 12.7 mph 89 % 0.00 in
00:53 42.6 °F 39.9 °F 29.61 in NW 6.0 mph 12.0 mph 90 % 0.00 in
00:58 42.5 °F 39.5 °F 29.63 in SSW 4.2 mph 9.2 mph 89 % 0.00 in
01:03 42.5 °F 39.5 °F 29.62 in WSW 2.7 mph 8.1 mph 89 % 0.00 in
01:08 42.4 °F 39.4 °F 29.65 in WNW 6.2 mph 11.5 mph 89 % 0.00 in
01:13 42.5 °F 39.2 °F 29.65 in NW 6.0 mph 10.4 mph 88 % 0.00 in
01:18 42.5 °F 38.6 °F 29.65 in NW 8.2 mph 16.1 mph 86 % 0.00 in
01:23 42.5 °F 38.0 °F 29.66 in WNW 5.5 mph 8.1 mph 84 % 0.00 in
01:28 42.5 °F 37.7 °F 29.66 in SW 6.5 mph 10.4 mph 83 % 0.00 in
01:33 42.5 °F 37.1 °F 29.66 in NW 9.6 mph 12.7 mph 81 % 0.00 in
01:38 42.4 °F 37.0 °F 29.66 in West 4.5 mph 10.4 mph 81 % 0.00 in
01:43 42.4 °F 36.7 °F 29.66 in NW 7.7 mph 13.8 mph 80 % 0.00 in
01:48 42.3 °F 36.3 °F 29.66 in North 5.4 mph 9.2 mph 79 % 0.00 in
01:53 42.2 °F 35.8 °F 29.67 in West 6.5 mph 9.2 mph 78 % 0.00 in
01:59 42.0 °F 35.3 °F 29.67 in NW 6.0 mph 9.2 mph 77 % 0.00 in
02:04 41.9 °F 34.9 °F 29.68 in WNW 5.6 mph 12.7 mph 76 % 0.00 in
02:09 41.7 °F 34.0 °F 29.68 in NW 4.9 mph 8.1 mph 74 % 0.00 in
02:14 41.5 °F 33.8 °F 29.68 in West 6.1 mph 12.7 mph 74 % 0.00 in
02:19 41.4 °F 33.7 °F 29.68 in West 6.1 mph 18.4 mph 74 % 0.00 in
02:24 41.3 °F 33.6 °F 29.69 in West 7.6 mph 15.0 mph 74 % 0.00 in
02:29 41.2 °F 33.5 °F 29.69 in WNW 7.9 mph 14.0 mph 74 % 0.00 in
02:34 41.1 °F 33.1 °F 29.69 in NW 6.4 mph 13.8 mph 73 % 0.00 in
02:39 41.0 °F 32.7 °F 29.69 in WNW 10.4 mph 14.0 mph 72 % 0.00 in
02:44 40.9 °F 32.2 °F 29.70 in NW 4.1 mph 9.2 mph 71 % 0.00 in
02:49 40.8 °F 31.8 °F 29.70 in WNW 8.3 mph 18.4 mph 70 % 0.00 in
02:54 40.8 °F 31.8 °F 29.70 in WNW 4.3 mph 11.5 mph 70 % 0.00 in
02:59 40.7 °F 32.0 °F 29.70 in WNW 6.7 mph 8.1 mph 71 % 0.00 in
03:04 40.7 °F 32.0 °F 29.70 in West 10.7 mph 14.0 mph 71 % 0.00 in
03:09 40.7 °F 32.0 °F 29.70 in NW 6.4 mph 11.5 mph 71 % 0.00 in
03:14 40.7 °F 31.7 °F 29.71 in WNW 9.1 mph 19.6 mph 70 % 0.00 in
03:19 40.7 °F 32.0 °F 29.71 in NW 7.5 mph 12.7 mph 71 % 0.00 in
03:24 40.6 °F 31.6 °F 29.71 in NNW 6.3 mph 10.4 mph 70 % 0.00 in
03:30 40.6 °F 31.2 °F 29.71 in WNW 10.5 mph 16.1 mph 69 % 0.00 in
03:35 40.5 °F 31.1 °F 29.72 in WSW 5.9 mph 11.5 mph 69 % 0.00 in
03:40 40.5 °F 31.1 °F 29.72 in West 9.1 mph 13.0 mph 69 % 0.00 in
03:45 40.5 °F 31.1 °F 29.72 in WSW 5.2 mph 11.5 mph 69 % 0.00 in
03:50 40.4 °F 31.0 °F 29.72 in NW 7.9 mph 11.5 mph 69 % 0.00 in
03:55 40.3 °F 30.9 °F 29.73 in WNW 7.7 mph 13.0 mph 69 % 0.00 in
04:00 40.2 °F 30.1 °F 29.73 in NW 10.2 mph 19.6 mph 67 % 0.00 in
04:05 40.2 °F 29.7 °F 29.73 in NW 9.9 mph 17.0 mph 66 % 0.00 in
04:10 40.0 °F 29.9 °F 29.73 in NW 4.2 mph 15.0 mph 67 % 0.00 in
04:15 39.8 °F 29.7 °F 29.73 in North 6.5 mph 11.0 mph 67 % 0.00 in
04:20 39.6 °F 29.5 °F 29.74 in NNW 9.5 mph 17.3 mph 67 % 0.00 in
04:25 39.5 °F 29.1 °F 29.74 in WNW 8.2 mph 15.0 mph 66 % 0.00 in
04:30 39.4 °F 29.3 °F 29.75 in NW 4.3 mph 11.5 mph 67 % 0.00 in
04:35 39.3 °F 29.3 °F 29.75 in NW 8.2 mph 13.8 mph 67 % 0.00 in
04:40 39.1 °F 28.7 °F 29.75 in NNW 5.5 mph 11.5 mph 66 % 0.00 in
04:45 39.0 °F 27.8 °F 29.75 in WNW 8.3 mph 16.1 mph 64 % 0.00 in
04:50 38.9 °F 27.0 °F 29.76 in NNW 10.9 mph 16.1 mph 62 % 0.00 in
04:55 38.8 °F 26.1 °F 29.76 in NNW 13.0 mph 20.7 mph 60 % 0.00 in
05:00 38.7 °F 26.0 °F 29.77 in WNW 8.9 mph 17.3 mph 60 % 0.00 in
05:05 38.6 °F 25.9 °F 29.77 in WNW 10.0 mph 18.4 mph 60 % 0.00 in
05:10 38.5 °F 26.2 °F 29.78 in SSW 6.4 mph 11.5 mph 61 % 0.00 in
05:15 38.4 °F 25.7 °F 29.78 in West 7.4 mph 13.8 mph 60 % 0.00 in
05:21 38.3 °F 25.2 °F 29.78 in NW 12.9 mph 19.6 mph 59 % 0.00 in
05:26 38.2 °F 24.3 °F 29.78 in NW 13.2 mph 23.0 mph 57 % 0.00 in
05:31 38.1 °F 24.2 °F 29.78 in WNW 9.1 mph 15.0 mph 57 % 0.00 in
05:36 38.0 °F 24.9 °F 29.79 in West 8.4 mph 13.0 mph 59 % 0.00 in
05:41 37.9 °F 24.0 °F 29.79 in WNW 7.8 mph 16.1 mph 57 % 0.00 in
05:46 37.9 °F 24.8 °F 29.79 in NW 7.1 mph 11.5 mph 59 % 0.00 in
05:51 37.8 °F 25.5 °F 29.80 in WNW 6.9 mph 11.5 mph 61 % 0.00 in
05:56 37.7 °F 25.1 °F 29.80 in West 5.3 mph 19.6 mph 60 % 0.00 in
06:01 37.6 °F 25.0 °F 29.80 in NNW 4.0 mph 10.4 mph 60 % 0.00 in
06:06 37.5 °F 25.3 °F 29.81 in WNW 2.0 mph 2.3 mph 61 % 0.00 in
06:11 37.4 °F 24.8 °F 29.81 in NW 6.3 mph 11.5 mph 60 % 0.00 in
06:16 37.3 °F 24.7 °F 29.82 in WNW 6.3 mph 15.0 mph 60 % 0.00 in
06:21 37.3 °F 25.1 °F 29.82 in North 4.4 mph 9.2 mph 61 % 0.00 in
06:26 37.3 °F 24.7 °F 29.82 in NW 8.0 mph 11.5 mph 60 % 0.00 in
06:31 37.3 °F 25.1 °F 29.82 in NW 6.0 mph 10.4 mph 61 % 0.00 in
06:36 37.3 °F 25.5 °F 29.82 in WNW 5.5 mph 11.5 mph 62 % 0.00 in
06:41 37.3 °F 25.5 °F 29.83 in West 4.2 mph 9.0 mph 62 % 0.00 in
06:46 37.4 °F 25.6 °F 29.83 in WNW 5.3 mph 9.2 mph 62 % 0.00 in
06:51 37.5 °F 25.3 °F 29.83 in NW 3.1 mph 15.0 mph 61 % 0.00 in
06:56 37.7 °F 25.5 °F 29.84 in NNW 5.0 mph 10.4 mph 61 % 0.00 in
07:01 37.9 °F 25.6 °F 29.84 in NW 5.0 mph 9.2 mph 61 % 0.00 in
07:06 38.1 °F 25.8 °F 29.84 in WNW 4.4 mph 10.4 mph 61 % 0.00 in
07:11 38.1 °F 25.8 °F 29.85 in WNW 4.9 mph 11.5 mph 61 % 0.00 in
07:16 38.2 °F 26.3 °F 29.85 in NW 7.8 mph 11.0 mph 62 % 0.00 in
07:21 38.2 °F 26.3 °F 29.85 in WSW 3.8 mph 9.2 mph 62 % 0.00 in
07:27 38.2 °F 26.7 °F 29.86 in NW 4.4 mph 10.0 mph 63 % 0.00 in
07:32 38.2 °F 26.7 °F 29.86 in NW 8.4 mph 17.0 mph 63 % 0.00 in
07:37 38.2 °F 26.3 °F 29.86 in NW 7.2 mph 12.7 mph 62 % 0.00 in
07:42 38.2 °F 25.5 °F 29.87 in NW 8.3 mph 18.4 mph 60 % 0.00 in
07:47 38.2 °F 25.9 °F 29.87 in WNW 10.0 mph 11.5 mph 61 % 0.00 in
07:52 38.2 °F 25.9 °F 29.87 in NW 7.8 mph 12.7 mph 61 % 0.00 in
07:57 38.2 °F 25.9 °F 29.88 in NW 7.4 mph 12.7 mph 61 % 0.00 in
08:02 38.2 °F 25.9 °F 29.88 in NW 7.8 mph 14.0 mph 61 % 0.00 in
08:07 38.1 °F 25.8 °F 29.89 in NW 9.8 mph 12.7 mph 61 % 0.00 in
08:12 38.1 °F 25.4 °F 29.89 in NNW 7.4 mph 15.0 mph 60 % 0.00 in
08:17 38.0 °F 25.7 °F 29.89 in NNW 6.8 mph 19.6 mph 61 % 0.00 in
08:22 38.0 °F 25.7 °F 29.89 in WNW 8.1 mph 12.7 mph 61 % 0.00 in
08:27 38.0 °F 25.3 °F 29.89 in NNW 11.3 mph 22.0 mph 60 % 0.00 in
08:32 38.1 °F 25.0 °F 29.89 in WNW 7.9 mph 20.7 mph 59 % 0.00 in
08:37 38.1 °F 25.4 °F 29.90 in WNW 5.6 mph 18.4 mph 60 % 0.00 in
08:42 38.2 °F 25.1 °F 29.89 in WNW 6.6 mph 14.0 mph 59 % 0.00 in
08:47 38.2 °F 25.5 °F 29.90 in NW 7.3 mph 11.5 mph 60 % 0.00 in
08:52 38.3 °F 25.2 °F 29.90 in NW 5.2 mph 9.2 mph 59 % 0.00 in
08:57 38.3 °F 25.6 °F 29.91 in WSW 7.0 mph 16.1 mph 60 % 0.00 in
09:02 38.4 °F 25.7 °F 29.91 in NW 6.9 mph 15.0 mph 60 % 0.00 in
09:07 38.5 °F 26.6 °F 29.91 in West 8.6 mph 12.0 mph 62 % 0.00 in
09:12 38.6 °F 25.5 °F 29.91 in WNW 5.6 mph 9.2 mph 59 % 0.00 in
09:18 38.6 °F 25.5 °F 29.92 in NW 10.0 mph 16.1 mph 59 % 0.00 in
09:23 38.6 °F 25.5 °F 29.92 in NW 6.0 mph 11.0 mph 59 % 0.00 in
09:28 38.8 °F 24.4 °F 29.92 in WNW 9.6 mph 17.0 mph 56 % 0.00 in
09:33 38.9 °F 24.1 °F 29.92 in NW 6.9 mph 12.7 mph 55 % 0.00 in
09:38 39.1 °F 24.7 °F 29.92 in NNW 7.7 mph 12.0 mph 56 % 0.00 in
09:43 39.3 °F 24.9 °F 29.92 in WNW 10.2 mph 15.0 mph 56 % 0.00 in
09:48 39.4 °F 24.6 °F 29.93 in NW 10.1 mph 15.0 mph 55 % 0.00 in
09:53 39.3 °F 23.6 °F 29.93 in NNW 7.2 mph 10.4 mph 53 % 0.00 in
09:58 39.5 °F 24.7 °F 29.93 in WNW 11.6 mph 17.3 mph 55 % 0.00 in
10:03 39.6 °F 24.7 °F 29.93 in WNW 5.0 mph 17.3 mph 55 % 0.00 in
10:08 39.8 °F 25.8 °F 29.93 in NNW 4.9 mph 11.5 mph 57 % 0.00 in
10:13 40.0 °F 25.1 °F 29.93 in West 6.8 mph 17.3 mph 55 % 0.00 in
10:19 39.9 °F 25.9 °F 29.94 in West 5.2 mph 16.0 mph 57 % 0.00 in
10:24 39.6 °F 24.7 °F 29.94 in NW 6.7 mph 17.3 mph 55 % 0.00 in
10:29 39.5 °F 24.7 °F 29.94 in North 5.3 mph 11.5 mph 55 % 0.00 in
10:34 39.5 °F 24.2 °F 29.95 in WNW 6.1 mph 12.7 mph 54 % 0.00 in
10:39 39.6 °F 24.7 °F 29.95 in WNW 6.9 mph 10.0 mph 55 % 0.00 in
10:44 40.1 °F 25.2 °F 29.95 in WNW 9.1 mph 13.8 mph 55 % 0.00 in
10:49 40.4 °F 24.1 °F 29.95 in West 6.2 mph 16.0 mph 52 % 0.00 in
10:54 40.7 °F 24.4 °F 29.95 in SSW 5.4 mph 15.0 mph 52 % 0.00 in
10:59 41.1 °F 23.9 °F 29.95 in WNW 6.6 mph 13.0 mph 50 % 0.00 in
11:04 41.3 °F 25.0 °F 29.95 in West 2.0 mph 6.9 mph 52 % 0.00 in
11:09 41.8 °F 25.0 °F 29.95 in NW 7.0 mph 13.8 mph 51 % 0.00 in
11:14 41.9 °F 24.6 °F 29.96 in NNW 7.7 mph 13.8 mph 50 % 0.00 in
11:19 41.6 °F 24.8 °F 29.96 in WNW 8.4 mph 17.3 mph 51 % 0.00 in
11:24 41.3 °F 25.0 °F 29.96 in WNW 7.5 mph 17.3 mph 52 % 0.00 in
11:29 41.0 °F 23.8 °F 29.96 in WNW 4.6 mph 17.3 mph 50 % 0.00 in
11:34 41.3 °F 25.9 °F 29.96 in WNW 5.8 mph 10.4 mph 54 % 0.00 in
11:39 41.6 °F 24.3 °F 29.96 in West 8.4 mph 16.1 mph 50 % 0.00 in
11:44 41.8 °F 25.0 °F 29.96 in NW 7.7 mph 11.5 mph 51 % 0.00 in
11:49 41.7 °F 24.9 °F 29.96 in WNW 6.9 mph 13.8 mph 51 % 0.00 in
11:54 41.5 °F 24.7 °F 29.96 in NNW 5.8 mph 9.2 mph 51 % 0.00 in
11:59 41.0 °F 23.8 °F 29.97 in WNW 5.3 mph 13.0 mph 50 % 0.00 in
12:04 40.4 °F 24.1 °F 29.97 in WNW 7.7 mph 15.0 mph 52 % 0.00 in
12:09 40.0 °F 24.2 °F 29.97 in WNW 7.8 mph 13.0 mph 53 % 0.00 in
12:15 40.0 °F 22.8 °F 29.97 in NW 8.5 mph 17.3 mph 50 % 0.00 in
12:20 40.2 °F 23.5 °F 29.97 in NNW 9.3 mph 17.3 mph 51 % 0.00 in
12:25 40.6 °F 23.4 °F 29.97 in WNW 9.1 mph 13.8 mph 50 % 0.00 in
12:30 40.9 °F 24.6 °F 29.97 in SSW 6.1 mph 6.1 mph 52 % 0.00 in
12:35 41.1 °F 23.4 °F 29.97 in WNW 8.2 mph 13.8 mph 49 % 0.00 in
12:40 41.4 °F 23.6 °F 29.97 in West 4.9 mph 10.4 mph 49 % 0.00 in
12:45 41.7 °F 22.9 °F 29.97 in West 8.6 mph 16.1 mph 47 % 0.00 in
12:50 41.9 °F 24.1 °F 29.97 in WNW 6.7 mph 13.0 mph 49 % 0.00 in
12:55 42.0 °F 23.7 °F 29.97 in West 4.2 mph 11.0 mph 48 % 0.00 in
13:00 42.3 °F 24.0 °F 29.97 in NW 8.4 mph 11.5 mph 48 % 0.00 in
13:05 42.4 °F 23.6 °F 29.97 in NW 6.3 mph 12.7 mph 47 % 0.00 in
13:10 42.4 °F 23.1 °F 29.97 in NW 5.7 mph 16.1 mph 46 % 0.00 in
13:15 42.4 °F 23.1 °F 29.97 in WNW 5.3 mph 15.0 mph 46 % 0.00 in
13:20 42.4 °F 23.6 °F 29.97 in West 7.8 mph 11.5 mph 47 % 0.00 in
13:25 42.5 °F 22.6 °F 29.97 in NW 3.0 mph 9.2 mph 45 % 0.00 in
13:30 42.6 °F 23.2 °F 29.97 in West 3.4 mph 6.9 mph 46 % 0.00 in
13:35 42.8 °F 23.9 °F 29.97 in NW 6.0 mph 11.5 mph 47 % 0.00 in
13:40 43.1 °F 23.2 °F 29.97 in West 6.9 mph 11.0 mph 45 % 0.00 in
13:45 43.2 °F 23.3 °F 29.98 in NW 8.6 mph 12.7 mph 45 % 0.00 in
13:50 43.2 °F 22.7 °F 29.98 in WNW 5.6 mph 11.5 mph 44 % 0.00 in
13:55 43.2 °F 23.3 °F 29.98 in NW 6.4 mph 13.0 mph 45 % 0.00 in
14:01 43.1 °F 23.2 °F 29.98 in NW 7.0 mph 10.4 mph 45 % 0.00 in
14:06 43.2 °F 23.3 °F 29.98 in NW 10.0 mph 13.8 mph 45 % 0.00 in
14:11 43.1 °F 23.2 °F 29.98 in WNW 7.8 mph 13.8 mph 45 % 0.00 in
14:16 43.0 °F 22.5 °F 29.98 in West 5.5 mph 10.4 mph 44 % 0.00 in
14:21 43.0 °F 22.5 °F 29.98 in West 5.8 mph 10.4 mph 44 % 0.00 in
14:26 43.1 °F 23.7 °F 29.98 in NW 6.4 mph 10.4 mph 46 % 0.00 in
14:31 43.0 °F 24.6 °F 29.98 in WNW 8.2 mph 11.0 mph 48 % 0.00 in
14:36 42.8 °F 23.9 °F 29.98 in NW 8.1 mph 13.8 mph 47 % 0.00 in
14:42 42.7 °F 23.8 °F 29.98 in WNW 3.7 mph 9.2 mph 47 % 0.00 in
14:47 42.5 °F 24.2 °F 29.99 in NW 6.2 mph 10.4 mph 48 % 0.00 in
14:52 42.3 °F 24.0 °F 29.99 in NW 5.3 mph 11.5 mph 48 % 0.00 in
14:57 42.0 °F 24.7 °F 30.00 in NW 6.4 mph 12.7 mph 50 % 0.00 in
15:02 41.7 °F 24.4 °F 30.00 in WNW 2.6 mph 9.2 mph 50 % 0.00 in
15:07 41.5 °F 23.2 °F 30.00 in WNW 8.6 mph 12.7 mph 48 % 0.00 in
15:12 41.3 °F 24.0 °F 30.00 in WNW 6.2 mph 11.5 mph 50 % 0.00 in
15:17 41.2 °F 23.0 °F 30.00 in WNW 8.7 mph 11.5 mph 48 % 0.00 in
15:22 41.1 °F 23.9 °F 30.00 in NW 4.4 mph 13.8 mph 50 % 0.00 in
15:27 41.0 °F 23.3 °F 30.00 in WNW 7.3 mph 17.0 mph 49 % 0.00 in
15:32 40.8 °F 22.6 °F 30.00 in NW 7.4 mph 12.7 mph 48 % 0.00 in
15:37 40.7 °F 23.0 °F 30.01 in NW 8.3 mph 15.0 mph 49 % 0.00 in
15:42 40.7 °F 24.4 °F 30.01 in WNW 4.7 mph 12.0 mph 52 % 0.00 in
15:47 40.6 °F 23.4 °F 30.01 in West 5.4 mph 9.2 mph 50 % 0.00 in
15:52 40.6 °F 24.8 °F 30.01 in NNW 2.7 mph 8.1 mph 53 % 0.00 in
15:57 40.5 °F 24.7 °F 30.01 in WNW 2.8 mph 10.4 mph 53 % 0.00 in
16:02 40.4 °F 24.1 °F 30.02 in NNW 6.6 mph 12.0 mph 52 % 0.00 in
16:07 40.2 °F 23.5 °F 30.02 in NW 7.5 mph 13.8 mph 51 % 0.00 in
16:12 40.2 °F 23.5 °F 30.03 in NW 5.7 mph 11.5 mph 51 % 0.00 in
16:18 40.1 °F 23.4 °F 30.03 in NNW 5.1 mph 11.5 mph 51 % 0.00 in
16:23 40.1 °F 23.9 °F 30.03 in NNW 5.5 mph 8.1 mph 52 % 0.00 in
16:28 40.0 °F 23.8 °F 30.03 in WNW 4.9 mph 11.5 mph 52 % 0.00 in
16:33 39.9 °F 23.7 °F 30.03 in WNW 5.9 mph 14.0 mph 52 % 0.00 in
16:38 39.9 °F 23.2 °F 30.04 in NNW 5.6 mph 9.0 mph 51 % 0.00 in
16:43 39.8 °F 24.0 °F 30.04 in WNW 5.5 mph 11.5 mph 53 % 0.00 in
16:48 39.7 °F 24.8 °F 30.04 in NW 4.6 mph 6.9 mph 55 % 0.00 in
16:53 39.6 °F 24.7 °F 30.05 in NNW 7.7 mph 11.5 mph 55 % 0.00 in
16:58 39.5 °F 24.7 °F 30.05 in NNW 4.5 mph 9.0 mph 55 % 0.00 in
17:03 39.3 °F 24.1 °F 30.05 in NW 6.0 mph 12.0 mph 54 % 0.00 in
17:08 39.2 °F 23.9 °F 30.06 in NW 5.0 mph 8.0 mph 54 % 0.00 in
17:13 39.1 °F 23.8 °F 30.06 in NW 6.0 mph 13.0 mph 54 % 0.00 in
17:18 39.1 °F 23.4 °F 30.06 in NW 5.0 mph 12.0 mph 53 % 0.00 in
17:23 38.9 °F 24.1 °F 30.06 in NW 7.0 mph 12.0 mph 55 % 0.00 in
17:28 38.9 °F 24.5 °F 30.07 in NW 2.0 mph 12.0 mph 56 % 0.00 in
17:33 38.8 °F 24.0 °F 30.07 in NW 3.3 mph 4.6 mph 55 % 0.00 in
17:38 38.8 °F 24.0 °F 30.07 in NW 7.0 mph 16.0 mph 55 % 0.00 in
17:43 38.7 °F 23.9 °F 30.07 in NW 7.0 mph 12.0 mph 55 % 0.00 in
17:48 38.6 °F 23.4 °F 30.08 in NNW 5.0 mph 12.0 mph 54 % 0.00 in
17:53 38.5 °F 23.7 °F 30.08 in NW 6.0 mph 9.0 mph 55 % 0.00 in
17:58 38.3 °F 23.5 °F 30.08 in WNW 6.0 mph 11.5 mph 55 % 0.00 in
18:03 38.2 °F 23.9 °F 30.09 in WNW 4.1 mph 9.2 mph 56 % 0.00 in
18:08 38.2 °F 23.4 °F 30.09 in NW 6.9 mph 13.8 mph 55 % 0.00 in
18:13 38.1 °F 23.8 °F 30.09 in NW 4.1 mph 9.2 mph 56 % 0.00 in
18:18 38.1 °F 22.9 °F 30.09 in WNW 5.2 mph 11.5 mph 54 % 0.00 in
18:23 38.1 °F 23.3 °F 30.10 in NNW 3.1 mph 6.0 mph 55 % 0.00 in
18:28 38.0 °F 24.1 °F 30.11 in NNW 4.2 mph 8.1 mph 57 % 0.00 in
18:33 38.0 °F 23.7 °F 30.11 in NNW 5.2 mph 11.5 mph 56 % 0.00 in
18:38 37.9 °F 23.6 °F 30.12 in NNW 4.5 mph 10.4 mph 56 % 0.00 in
18:43 37.9 °F 24.0 °F 30.12 in WNW 2.8 mph 9.2 mph 57 % 0.00 in
18:48 37.8 °F 23.5 °F 30.12 in North 3.3 mph 11.5 mph 56 % 0.00 in
18:53 37.8 °F 23.5 °F 30.13 in NNW 6.1 mph 9.0 mph 56 % 0.00 in
18:58 37.7 °F 23.4 °F 30.13 in NW 5.3 mph 8.1 mph 56 % 0.00 in
19:03 37.6 °F 22.9 °F 30.13 in NW 4.6 mph 10.0 mph 55 % 0.00 in
19:09 37.5 °F 22.8 °F 30.13 in NW 2.6 mph 9.2 mph 55 % 0.00 in
19:14 37.5 °F 23.2 °F 30.14 in NW 5.7 mph 11.5 mph 56 % 0.00 in
19:19 37.4 °F 22.7 °F 30.14 in WNW 6.5 mph 16.1 mph 55 % 0.00 in
19:24 37.5 °F 23.2 °F 30.14 in WNW 5.1 mph 11.5 mph 56 % 0.00 in
19:29 37.4 °F 22.7 °F 30.14 in NW 5.4 mph 9.2 mph 55 % 0.00 in
19:34 37.4 °F 23.1 °F 30.14 in West 3.0 mph 5.8 mph 56 % 0.00 in
19:39 37.4 °F 23.1 °F 30.15 in NNW 7.2 mph 7.2 mph 56 % 0.00 in
19:44 37.4 °F 23.5 °F 30.15 in NW 4.3 mph 7.0 mph 57 % 0.00 in
19:49 37.3 °F 23.4 °F 30.16 in WNW 6.7 mph 9.2 mph 57 % 0.00 in
19:54 37.3 °F 23.0 °F 30.16 in WNW 3.6 mph 12.7 mph 56 % 0.00 in
19:59 37.3 °F 23.0 °F 30.16 in NW 2.5 mph 9.2 mph 56 % 0.00 in
20:04 37.2 °F 22.9 °F 30.16 in WNW 2.9 mph 4.6 mph 56 % 0.00 in
20:09 37.2 °F 23.4 °F 30.16 in West 3.5 mph 6.9 mph 57 % 0.00 in
20:14 37.1 °F 23.3 °F 30.17 in NW 4.8 mph 6.9 mph 57 % 0.00 in
20:19 37.0 °F 23.2 °F 30.17 in West 3.7 mph 8.0 mph 57 % 0.00 in
20:24 37.0 °F 23.2 °F 30.17 in West 4.6 mph 8.1 mph 57 % 0.00 in
20:29 36.9 °F 22.7 °F 30.17 in NW 4.6 mph 6.9 mph 56 % 0.00 in
20:34 36.8 °F 22.6 °F 30.18 in NW 4.2 mph 9.2 mph 56 % 0.00 in
20:39 36.8 °F 23.0 °F 30.18 in West 3.8 mph 7.0 mph 57 % 0.00 in
20:44 36.8 °F 23.0 °F 30.18 in WNW 2.9 mph 6.0 mph 57 % 0.00 in
20:49 36.7 °F 22.9 °F 30.18 in West 3.1 mph 6.0 mph 57 % 0.00 in
20:54 36.6 °F 22.8 °F 30.19 in West 2.4 mph 4.6 mph 57 % 0.00 in
20:59 36.5 °F 22.7 °F 30.19 in WNW 1.7 mph 4.0 mph 57 % 0.00 in
21:05 36.4 °F 23.0 °F 30.20 in West 2.7 mph 5.8 mph 58 % 0.00 in
21:10 36.4 °F 22.6 °F 30.19 in West 0.6 mph 3.5 mph 57 % 0.00 in
21:15 36.3 °F 22.5 °F 30.19 in WNW 0.8 mph 3.5 mph 57 % 0.00 in
21:20 36.2 °F 22.8 °F 30.20 in WNW 1.3 mph 8.1 mph 58 % 0.00 in
21:25 36.1 °F 22.7 °F 30.20 in West 1.3 mph 3.5 mph 58 % 0.00 in
21:30 36.0 °F 22.6 °F 30.20 in WNW 1.9 mph 3.5 mph 58 % 0.00 in
21:35 35.9 °F 22.1 °F 30.20 in WNW 3.1 mph 8.1 mph 57 % 0.00 in
21:40 35.9 °F 21.7 °F 30.20 in NW 5.6 mph 10.4 mph 56 % 0.00 in
21:45 35.8 °F 21.6 °F 30.20 in NW 3.6 mph 7.0 mph 56 % 0.00 in
21:50 35.8 °F 21.6 °F 30.20 in West 3.6 mph 6.0 mph 56 % 0.00 in
21:55 35.8 °F 21.6 °F 30.21 in WNW 1.7 mph 3.5 mph 56 % 0.00 in
22:00 35.8 °F 21.6 °F 30.21 in West 2.6 mph 8.1 mph 56 % 0.00 in
22:05 35.8 °F 22.0 °F 30.20 in West 2.5 mph 6.9 mph 57 % 0.00 in
22:10 35.8 °F 22.0 °F 30.20 in SW 0.4 mph 1.2 mph 57 % 0.00 in
22:15 35.8 °F 22.0 °F 30.21 in NW 1.4 mph 3.5 mph 57 % 0.00 in
22:20 35.7 °F 22.4 °F 30.21 in WSW 1.3 mph 4.6 mph 58 % 0.00 in
22:25 35.7 °F 22.4 °F 30.21 in WSW 1.3 mph 3.0 mph 58 % 0.00 in
22:30 35.6 °F 22.7 °F 30.21 in SW 3.4 mph 6.0 mph 59 % 0.00 in
22:35 35.5 °F 22.6 °F 30.21 in West 1.7 mph 4.0 mph 59 % 0.00 in
22:40 35.4 °F 22.5 °F 30.21 in West 1.7 mph 3.5 mph 59 % 0.00 in
22:45 35.3 °F 22.4 °F 30.21 in West 2.9 mph 5.0 mph 59 % 0.00 in
22:50 35.2 °F 22.3 °F 30.21 in WSW 1.8 mph 3.5 mph 59 % 0.00 in
22:55 35.2 °F 22.3 °F 30.21 in West 0.5 mph 2.0 mph 59 % 0.00 in
23:00 35.2 °F 22.3 °F 30.22 in West 0.9 mph 2.3 mph 59 % 0.00 in
23:05 35.1 °F 22.6 °F 30.22 in West 1.7 mph 3.5 mph 60 % 0.00 in
23:11 35.1 °F 22.6 °F 30.22 in South 1.1 mph 2.3 mph 60 % 0.00 in
23:16 35.0 °F 22.9 °F 30.22 in South 1.5 mph 2.3 mph 61 % 0.00 in
23:21 34.8 °F 22.7 °F 30.23 in WSW 1.8 mph 3.5 mph 61 % 0.00 in
23:26 34.7 °F 22.6 °F 30.22 in Calm   1.2 mph 61 % 0.00 in
23:31 34.5 °F 22.4 °F 30.22 in WSW 0.3 mph 1.0 mph 61 % 0.00 in
23:36 34.3 °F 22.2 °F 30.22 in WSW 0.9 mph 2.3 mph 61 % 0.00 in
23:41 34.1 °F 22.8 °F 30.23 in Calm   1.2 mph 63 % 0.00 in
23:46 33.9 °F 22.6 °F 30.24 in SW 1.4 mph 2.3 mph 63 % 0.00 in
23:51 33.6 °F 22.3 °F 30.24 in Calm   2.3 mph 63 % 0.00 in
23:56 33.4 °F 22.1 °F 30.24 in Calm   1.2 mph 63 % 0.00 in
Crab Meadow Weather
Compliments of Weather Underground - 3 mb

Script developed by  Jim McMurry - jmcmurry@mwt.net Adapted for the template by  Wim van der Kuil - Leuven-Template.eu

Weather Terms: Flood Warning - General or areal flooding of streets, low-lying areas, urban storm drains, creeks and small streams is occurring, imminent, or highly likely. Flood warnings are issued for flooding that occurs more than 6 hours after the excessive rainfall. These warnings are issued on a county by county basis by the local Weather Forecast Office in Upton and are generally in effect for 6 to 12 hours.